Regional Weather Roundup
Issued by NWS

Home | Current Version | Previous Version | Graphics & Text | Print | Product List | Glossary On
Versions: 1 2 3 4 5 6 7 8 9 10 11 12 13 14 15 16 17 18 19 20 21 22 23 24 25 26 27 28 29 30 31 32 33 34 35 36 37 38 39 40 41 42 43 44 45 46 47 48 49 50
000
ASUS43 KMPX 290701
RWRMN
WEATHER ROUNDUP FOR MINNESOTA
NATIONAL WEATHER SERVICE TWIN CITIES/CHANHASSEN MN
100 AM CST THU JAN 29 2015


NOTE: "FAIR" INDICATES FEW OR NO CLOUDS BELOW 12,000 FEET WITH NO
SIGNIFICANT WEATHER AND/OR OBSTRUCTIONS TO VISIBILITY. N/A MEANS
CURRENT SKY AND/OR WEATHER CONDITIONS ARE NOT AVAILABLE.

MNZ060>063-068>070-290800-
   Twin Cities Metro

CITY           SKY/WX    TMP DP  RH WIND       PRES   REMARKS
TWIN CITIES    CLOUDY    31  28  89 NW9       29.88R FOG     WCI  23
ST PAUL        CLOUDY    31  29  92 NW12G21   29.89R FOG     WCI  22
CRYSTAL        CLOUDY    31  29  92 NW10      29.88R FOG     WCI  22
BLAINE         CLOUDY    32  32 100 NW8       29.88R FOG     WCI  25
LAKEVILLE      CLOUDY    28  28 100 NW9       29.88R FOG     WCI  20
EDEN PRAIRIE   CLOUDY    31  28  89 NW10      29.88R FOG     WCI  22
SOUTH ST PAUL  CLOUDY    32  30  93 NW8       29.88R FOG     WCI  25
LAKE ELMO      CLOUDY    32  30  93 NW8       29.88R FOG     WCI  25
$$
MNZ001>005-007-008-013>017-022>024-027-028-290800-
   Northwest Minnesota

CITY           SKY/WX    TMP DP  RH WIND       PRES   REMARKS
BEMIDJI        CLOUDY    30  27  90 NW17      29.95R WCI  18
HALLOCK        CLOUDY    18  14  86 NW20G25   30.15R WCI   1
ROSEAU         CLOUDY    23  19  86 NW14      30.04R WCI  11
WARROAD        CLOUDY    21  18  86 NW12G22   30.03R WCI   9
THIEF RVR FALL CLOUDY    19  18  93 NW15      30.08R WCI   5
CROOKSTON      CLOUDY    19  18  93 N17G24    30.14R WCI   4
FOSSTON        CLOUDY    19  19 100 NW16G23   30.05R WCI   5
DETROIT LAKES  CLOUDY    27  25  93 NW17G29   30.03R WCI  14
MOORHEAD       CLOUDY    28  28 100 N23G30    30.10R WCI  14
PARK RAPIDS    CLOUDY    29  27  92 NW21G30   29.94R FOG     WCI  16
MAHNOMEN       CLOUDY    23  22  95 NW18      30.03R WCI   9
$$
MNZ006-009>011-018-025>026-290800-
   North Central Minnesota

CITY           SKY/WX    TMP DP  RH WIND       PRES   REMARKS
BAUDETTE       CLOUDY    27  24  89 NW20      29.95R WCI  13
FLAG ISLAND    CLOUDY    25  21  86 NW28      30.00R WCI   8
INTL FALLS     CLOUDY    28  23  81 NW16      29.90R WCI  16
WASKISH        CLOUDY    28  27  93 NW13G24   29.96R WCI  18
BIG FORK       CLOUDY    28  27  93 N7G18     29.90R WCI  21
LONGVILLE      CLOUDY    30  28  93 NW7G18    29.90R WCI  23
GRAND RAPIDS   CLOUDY    30  27  86 NW22G30   29.86R WCI  17
CRANE LAKE     CLOUDY    27  25  93 NW9       29.88R WCI  17
ORR            CLOUDY    27  23  86 NW9       29.84R WCI  17
COOK           CLOUDY    28  27  93 NW10G20   29.85R WCI  19
WALKER         LGT SNOW  31  29  93 NW8       29.91R WCI  23
$$
MNZ012-019>021-037-290800-
   Northeast Minnesota

CITY           SKY/WX    TMP DP  RH WIND       PRES   REMARKS
DULUTH         FRZ DRZL  29  26  89 NW9       29.81R FOG     WCI  20
ELY            CLOUDY    27  27 100 NW6       29.81R FOG     WCI  20
HIBBING        CLOUDY    31  26  82 NW21G26   29.83R WCI  18
EVELETH        CLOUDY    30  30 100 NW10G16   29.83S FOG     WCI  21
DULUTH HARBOR  CLOUDY    30  28  93 W7        29.86S WCI  23
TWO HARBORS    CLOUDY    30  27  86 NW5       29.79S HAZE    WCI  25
SILVER BAY     CLOUDY    30  27  86 CALM      29.79S
GRAND MARAIS     N/A     30  25  81 W5        29.80S WCI  25
G MARAIS ARPRT CLOUDY    25  19  80 NW8       29.74S FOG     WCI  16
$$
MNZ029>031-032-039>041-046>048-054>057-064-290800-
   West Central Minnesota

CITY           SKY/WX    TMP DP  RH WIND       PRES   REMARKS
FERGUS FALLS   CLOUDY    27  27 100 N23G33    30.07R WCI  12
WHEATON        CLOUDY    28  25  86 NW24G32   30.09R WCI  14
MORRIS         CLOUDY    30  28  93 NW29      30.00R FOG     WCI  15
ALEXANDRIA     CLOUDY    29  27  92 NW22G33   29.96R WCI  15
ELBOW LAKE     CLOUDY    28  27  94 NW23G35   30.02R WCI  14
WADENA         CLOUDY    27  27 100 NW18G26   29.95R WCI  13
GLENWOOD       CLOUDY    30  28  93 NW22G29   29.96R WCI  17
APPLETON       CLOUDY    32  28  86 NW26G37   30.02R WCI  18
BENSON         CLOUDY    32  28  86 N26G32    29.99R WCI  18
ORTONVILLE     CLOUDY    30  27  86 NW24G35   30.04R WCI  16
MADISON        CLOUDY    36  32  87 N24G33    30.02S
WILLMAR        CLOUDY    34  30  86 NW24G32   29.96R WCI  21
$$
MNZ033>034-036-042>043-049>051-058-059-290800-
   Central Minnesota

CITY           SKY/WX    TMP DP  RH WIND       PRES   REMARKS
ST CLOUD       CLOUDY    31  30  96 NW10      29.90R FOG     WCI  22
SAUK CENTRE    CLOUDY    32  30  93 NW18      29.93R WCI  20
PAYNESVILLE    CLOUDY    31  30  99 W14G23    29.93R FOG     WCI  20
AITKIN         CLOUDY    34  28  80 W3        29.86R HAZE
PINE RIVER     MIX PCPN  32  30  93 NW7G17    29.94R WCI  26
BRAINERD       CLOUDY    31  30  96 NW13G22   29.89R WCI  21
STAPLES        CLOUDY    30  30 100 NW14G20   29.92R WCI  20
LONG PRAIRIE   CLOUDY    32  30  93 NW16G25   29.93R WCI  21
LITTLE FALLS   CLOUDY    32  32 100 NW7       29.91R WCI  26
LITCHFIELD     CLOUDY    34  34 100 NW13G18   29.92R WCI  25
BUFFALO        CLOUDY    31  29  94 W8        29.91R FOG     WCI  23
MAPLE LAKE     CLOUDY    32  32  99 W6        29.91R FOG     WCI  26
$$
MNZ037-044-045-052-053-290800-
   East Central Minnesota

CITY           SKY/WX    TMP DP  RH WIND       PRES   REMARKS
PRINCETON      CLOUDY    30  30 100 W7        29.89R FOG     WCI  23
MORA           CLOUDY    30  28  93 NW5       29.88S WCI  25
CAMBRIDGE      CLOUDY    30  25  80 W6        29.86S HAZE    WCI  24
RUSH CITY      CLOUDY    30  28  95 NW5       29.87R WCI  25
MOOSE LAKE     CLOUDY    30  28  93 NW3       29.84R FOG
HINCKLEY       CLOUDY    30  30 100 W5        29.86R FOG     WCI  25
CLOQUET        CLOUDY    28  27  93 W6        29.83S FOG     WCI  22
MCGREGOR       CLOUDY    30  30 100 NW7       29.86S WCI  23
$$
MNZ071>073-080-081-089-090-097-098-290800-
   Southwest Minnesota

CITY           SKY/WX    TMP DP  RH WIND       PRES   REMARKS
MONTEVIDEO     FLURRIES  32  32 100 N24G32    30.00R WCI  19
GRANITE FALLS  CLOUDY    32  30  90 NW17G30   30.00R WCI  21
CANBY          CLOUDY    32  30  91 NW22G35   30.03R WCI  19
MARSHALL       CLOUDY    32  27  80 N29G41    30.00R WCI  18
REDWOOD FALLS  CLOUDY    33  31  92 NW21G31   29.96R WCI  21
OLIVIA         CLOUDY    32  32 100 NW22G30   29.94R FOG     WCI  19
PIPESTONE      CLOUDY    34  30  86 N17G35    30.00R WCI  23
WINDOM         MIX PCPN  34  32  93 NW25G36   29.94R WCI  21
WORTHINGTON    CLOUDY   N/A N/A N/A N26G39    29.96R
JACKSON        CLOUDY    34  32  93 NW28G39   29.92R FOG     WCI  20
TRACY          MIX PCPN  33  32  96 NW18G29   29.98R WCI  22
SLAYTON        CLOUDY    32  30  92 NW21G33   29.97R WCI  20
$$
MNZ065>067-074>077-082>085-091>093-290800-
   South Central Minnesota

CITY           SKY/WX    TMP DP  RH WIND       PRES   REMARKS
MANKATO        CLOUDY    32  28  86 NW16      29.90R WCI  21
NEW ULM        CLOUDY    32  32 100 NW14      29.92R FOG     WCI  22
ST JAMES       CLOUDY    34  34 100 NW18      29.93  FOG     WCI  23
FAIRMONT       CLOUDY    34  28  80 NW21G26   29.89R WCI  22
GLENCOE        CLOUDY    33  32  98 W9        29.90R FOG     WCI  25
FARIBAULT      CLOUDY    30  30 100 NW12      29.88R FOG     WCI  21
OWATONNA       CLOUDY    30  30 100 NW17      29.87R FOG     WCI  18
WASECA         CLOUDY    32  32 100 NW17G23   29.89R FOG     WCI  21
ALBERT LEA     CLOUDY    32  32 100 N14G28    29.85R FOG     WCI  22
$$
MNZ078>079-086>088-094>096-290800-
   Southeast Minnesota

CITY           SKY/WX    TMP DP  RH WIND       PRES   REMARKS
ROCHESTER      FRZ RAIN  31  30  96 N14       29.82R VSB 1   WCI  21
RED WING       CLOUDY    30  30 100 NW8       29.85S FOG     WCI  23
STANTON        CLOUDY    32  30  93 NW9       29.86R WCI  24
DODGE CENTER   FOG       30  30 100 N15       29.83R VSB 3/4 WCI  19
WINONA         CLOUDY    32  28  86 CALM      29.83R
AUSTIN         CLOUDY    32  30  93 NW16      29.83R FOG     WCI  21
PRESTON        CLOUDY    30  29  96 N8        29.80S FOG     WCI  22
$$
ABBREVIATIONS USED IN REMARKS
   TC - TEMPERATURES IN CELSIUS
  WCI - WIND CHILL INDEX
   HX - HEAT INDEX
  VSB - VISIBILITY
$$


USA.gov is the U.S. government's official web portal to all federal, state and local government web resources and services.